{"data":{"norad_id":64034,"epoch":"2026-05-24T19:14:28.964832Z","epoch_age_seconds":102339,"freshness":"FRESH","line1":"1 64034U 25102N   26144.80172413  .00004687  00000+0  40036-3 0  9990","line2":"2 64034  70.0000 282.5239 0003117 267.5990  92.4812 14.98326054 57401","mean_motion":14.98326054,"eccentricity":0.0003117,"inclination_deg":70,"raan_deg":282.5239,"arg_perigee_deg":267.599,"mean_anomaly_deg":92.4812,"bstar":0.00040036,"rev_number":5740,"period_min":96.107252233632,"perigee_km":569.901714723,"apogee_km":574.23447257838,"semimajor_km":6950.2050936507,"source":"CELESTRAK","updated_at":"2026-05-25T13:38:20.226863Z"}}